GFSNIL_850_spd_021.txt.gz
Wind_Speed
19 19 18 16 16 15 14 12 11 9 7 6 6 5 5 7 8 8 6 6 6 10
18 17 17 16 15 13 11 9 6 6 6 5 3 3 4 5 7 7 7 7 6 8
19 18 17 15 11 9 8 6 7 8 6 5 4 4 6 7 8 7 7 7 6 10
16 14 12 10 10 9 7 7 10 9 5 3 4 6 9 10 9 8 7 8 8 9
11 10 9 11 11 9 9 8 10 8 3 5 6 8 13 13 11 8 9 8 10 10
11 10 8 9 9 10 9 12 10 5 4 5 8 9 10 6 5 9 8 9 10 12
10 6 5 11 9 6 13 11 4 3 3 5 7 7 2 1 3 6 9 11 11 11
10 6 5 13 10 12 15 8 5 3 3 5 6 3 3 1 3 5 7 8 11 9
9 9 10 10 11 15 12 8 6 3 2 5 5 4 3 2 2 2 5 7 10 8
12 11 11 13 13 13 9 8 6 3 2 5 5 5 4 2 3 3 7 6 10 15
12 11 11 11 12 12 9 8 7 4 1 4 5 5 4 3 3 5 9 10 10 9
13 10 15 14 11 11 10 9 8 5 3 4 6 4 3 4 5 7 11 10 11 6
12 12 11 9 10 10 10 10 9 6 4 4 2 2 3 5 5 8 12 13 9 14
12 11 11 9 8 9 10 11 10 7 5 2 2 1 3 5 3 5 15 15 15 18

GFSNIL_850_spd_024.txt.gz
Wind_Speed
12 13 17 16 14 14 13 12 13 10 10 9 9 8 8 8 6 7 8 8 6 6
15 14 15 15 13 15 15 11 8 7 9 9 8 7 6 5 5 8 9 9 7 6
18 16 16 16 16 15 12 9 8 9 9 8 7 5 4 5 7 8 9 8 7 7
19 17 16 16 14 11 8 8 9 11 9 7 4 4 5 7 9 8 8 8 8 7
18 16 14 12 11 10 10 12 13 10 6 2 4 6 9 10 11 10 10 9 9 7
13 12 11 11 11 12 12 11 11 8 3 2 6 7 9 10 6 7 9 10 9 8
14 10 9 11 11 13 12 13 8 5 1 4 6 6 3 2 3 5 7 7 9 9
12 10 6 12 10 11 15 10 8 5 1 4 5 3 4 1 1 3 4 6 9 9
10 8 10 11 9 15 12 9 7 5 4 6 6 5 4 1 1 2 4 7 9 10
9 11 11 10 11 15 9 8 7 4 4 6 7 6 6 3 2 4 8 9 9 11
12 13 13 13 13 12 8 7 5 3 2 5 6 6 5 3 3 7 9 9 9 11
12 13 12 11 10 11 9 8 7 3 1 4 5 5 6 6 7 11 10 10 9 7
12 10 12 12 9 11 10 9 7 4 1 3 4 4 5 6 7 10 12 10 8 13
10 10 10 9 8 9 10 9 7 5 3 1 3 4 5 5 5 9 13 14 17 16

GFSNIL_850_spd_030.txt.gz
Wind_Speed
16 14 14 15 18 17 18 18 21 19 17 14 12 12 14 9 10 11 10 12 10 10
17 18 19 21 20 19 19 19 18 16 15 13 13 11 11 10 11 11 12 10 10 9
21 21 22 21 20 20 20 19 17 15 14 12 11 11 10 10 12 11 9 8 9 8
22 22 21 21 20 19 18 17 14 12 11 11 10 10 11 10 10 11 9 8 9 10
22 21 21 19 18 16 13 13 12 12 11 10 9 9 9 10 9 11 11 11 10 10
20 19 18 16 15 13 13 12 13 12 10 7 7 8 9 11 12 12 12 13 12 11
17 16 15 14 14 13 13 14 12 9 7 7 6 5 5 7 7 9 8 11 12 11
15 14 15 15 14 13 13 12 10 8 5 4 3 2 2 4 6 8 8 9 10 10
14 14 14 14 14 14 14 12 11 7 4 2 2 1 2 3 5 7 8 9 10 14
13 13 14 13 14 15 12 12 11 7 5 3 1 1 1 2 3 7 10 11 11 11
12 13 13 14 16 13 11 12 9 6 4 2 3 1 2 4 4 5 8 10 10 10
12 13 14 16 15 11 12 9 8 5 3 3 3 3 4 7 6 6 7 9 11 12
13 14 15 16 13 10 11 9 7 4 1 2 3 4 5 7 8 8 10 11 10 10
13 13 13 12 12 10 10 10 8 5 3 3 3 4 4 6 6 8 10 9 10 13

GFSNIL_850_spd_033.txt.gz
Wind_Speed
20 19 21 19 18 18 18 18 22 20 20 19 16 14 14 11 10 10 12 11 10 11
18 19 15 19 18 17 19 19 22 21 18 15 15 14 13 10 11 11 12 14 12 11
22 23 21 23 21 21 21 20 18 16 15 14 13 12 11 11 10 12 17 12 10 11
23 24 25 23 21 19 19 17 15 14 13 12 12 11 11 11 11 12 12 10 10 11
24 23 22 20 18 17 16 15 13 12 11 11 10 10 11 11 11 12 13 11 10 10
24 21 20 18 16 15 14 14 12 12 11 10 9 8 9 11 12 12 11 13 12 10
20 19 17 16 15 14 13 13 12 11 9 7 7 6 8 9 10 12 12 12 13 10
16 15 14 14 14 14 14 13 11 9 7 5 4 5 3 3 7 5 8 11 11 11
15 15 15 15 15 13 13 12 10 10 5 4 4 4 4 4 3 3 9 7 10 12
15 16 16 16 16 14 13 13 9 7 6 4 2 2 1 4 6 6 8 10 11 8
15 15 15 15 15 14 12 11 9 7 5 3 2 1 2 5 5 7 8 8 9 10
17 15 16 15 15 13 11 10 7 6 5 4 4 3 3 5 7 6 7 10 10 9
13 14 15 15 14 11 10 8 7 6 5 2 4 4 6 5 6 7 7 9 10 11
14 13 15 14 12 10 10 9 8 7 5 5 3 3 5 5 5 6 9 10 10 10